Location: Leiter
(44.7178°N, 106.2687°W)
Time: 21:40:31
(UTC+00:00)

STARS - Pass Details

Date: 08 July 2022
Orbit: 620 x 637 km, 98.2° (Epoch: 07 August)

Event Time Altitude Azimuth Distance (km) Brightness Sun altitude
Rises 05:30:38 0° 18° (NNE) 2,924 ? -19.1°
Reaches altitude 10° 05:32:53 10° 23° (NNE) 2,009 ? -19.2°
Maximum altitude 05:37:09 52° 100° (E) 776 ? -19.5°
Enters shadow 05:37:57 46° 137° (SE) 846 ? -19.6°
